This is the latest recevied weather packets stored in our database for station/object IU4KCH-20. If no packets are shown the sender has not sent any weather packets the latest 1 day(s).
| Time | Temp. | Humidity | Pressure | Rain* | Wind** | Luminosity | Snow |
|---|---|---|---|---|---|---|---|
| 1777784350 | 15.56° C | 51% | 1016.6 hPa | - | - | - | - |
| 1777783449 | 15° C | 51% | 1016.6 hPa | - | - | - | - |
| 1777782548 | 15° C | 52% | 1016.6 hPa | - | - | - | - |
| 1777781648 | 15° C | 52% | 1016.5 hPa | - | - | - | - |
| 1777780747 | 15° C | 53% | 1016.5 hPa | - | - | - | - |
| 1777779846 | 14.44° C | 55% | 1016.5 hPa | - | - | - | - |
| 1777778945 | 14.44° C | 56% | 1016.6 hPa | - | - | - | - |
| 1777778044 | 14.44° C | 56% | 1016.6 hPa | - | - | - | - |
| 1777777146 | 12.78° C | 61% | 1016.8 hPa | - | - | - | - |
| 1777776243 | 12.22° C | 62% | 1016.8 hPa | - | - | - | - |
| 1777775342 | 13.33° C | 57% | 1016.8 hPa | - | - | - | - |
| 1777774442 | 13.89° C | 59% | 1016.7 hPa | - | - | - | - |
| 1777773542 | 13.89° C | 56% | 1016.8 hPa | - | - | - | - |
| 1777772642 | 15.56° C | 53% | 1016.7 hPa | - | - | - | - |
| 1777768135 | 16.11° C | 50% | 1017 hPa | - | - | - | - |
| 1777767234 | 16.11° C | 50% | 1017.3 hPa | - | - | - | - |
| 1777766333 | 16.11° C | 50% | 1017.3 hPa | - | - | - | - |
| 1777765433 | 16.11° C | 50% | 1017.4 hPa | - | - | - | - |
| 1777763631 | 17.22° C | 46% | 1017.6 hPa | - | - | - | - |
| 1777762730 | 17.22° C | 47% | 1017.6 hPa | - | - | - | - |
| 1777761829 | 17.78° C | 45% | 1017.6 hPa | - | - | - | - |
| 1777760928 | 17.22° C | 46% | 1017.7 hPa | - | - | - | - |
| 1777759127 | 17.78° C | 45% | 1017.6 hPa | - | - | - | - |
| 1777758226 | 17.78° C | 47% | 1017.7 hPa | - | - | - | - |
| 1777756424 | 18.33° C | 44% | 1017.7 hPa | - | - | - | - |
* Rain since midnight (hover to see other rain measurements)
** Current wind speed in m/s (hover to see current wind gust speed)